Regional Weather Roundup
Issued by NWS

Home | Current Version | Previous Version | Graphics & Text | Print | Product List | Glossary On
Versions: 1 2 3 4 5 6 7 8 9 10 11 12 13 14 15 16 17 18 19 20 21 22 23 24 25 26 27 28 29 30 31 32 33 34 35 36 37 38 39 40 41 42 43 44 45 46 47 48 49
000
ASUS45 KBOU 231207
RWRCO

WEATHER ROUNDUP FOR COLORADO
NATIONAL WEATHER SERVICE DENVER/BOULDER CO
600 AM MDT WED JUL 23 2014

NOTE: "FAIR" INDICATES FEW OR NO CLOUDS BELOW 12000 FEET WITH NO
SIGNIFICANT WEATHER AND/OR OBSTRUCTIONS TO VISIBILITY.

COZ001>005-013-030-031-231300-
...NORTHWEST COLORADO...

CITY           SKY/WX    TMP DP  RH WIND       PRES   REMARKS
CRAIG          CLEAR     43  37  79 SW3       30.37R
HAYDEN         CLEAR     54  34  47 S6        30.39R
MEEKER         CLEAR     51  34  52 SE3       30.38R
MOUNT WERNER   NOT AVBL
STEAMBOAT SPGS CLEAR     52  37  58 CALM      30.42S
WALDEN         CLEAR     43  36  75 SE6       30.53R
$$

COZ006>008-011-231300-
...WEST CENTRAL VALLEYS...

CITY           SKY/WX    TMP DP  RH WIND       PRES   REMARKS
GRAND JUNCTION CLEAR     74  32  21 E15       30.24R
MONTROSE       CLEAR     64  42  44 SE7       30.36R
EAGLE          CLEAR     54  43  66 SE7       30.47R
RIFLE          CLEAR     62  32  32 CALM      30.32R
DELTA          CLEAR     65  39  39 NW3       30.30S
NUCLA          NOT AVBL
$$

COZ017>023-064>068-231300-
...SOUTHWEST COLORADO...

CITY           SKY/WX    TMP DP  RH WIND       PRES   REMARKS
DURANGO        MOCLDY    60  54  80 CALM      30.44S
CORTEZ         CLEAR     74  42  31 CALM      30.35S
PAGOSA SPRINGS MOCLDY    63  43  48 CALM      30.53S
TELLURIDE      MOCLDY    63  39  42 E5        30.62R
WOLF CREEK PAS NOT AVBL
$$

COZ009-010-012-014-032>034-037-058>063-231300-
...CENTRAL COLORADO...

CITY           SKY/WX    TMP DP  RH WIND       PRES   REMARKS
ASPEN          CLEAR     64  41  42 S10       30.50R
BUENA VISTA    CLEAR     51  42  72 W5        30.59R
COPPER MTN     CLEAR     59  36  41 S25       30.86S
BERTHOUD PASS  FAIR      48  34  57 SW14      30.92R
COTTONWOOD PAS CLEAR     63  37  39 CALM      30.71S
GUNNISON       MOCLDY    54  39  58 NE5       30.58R
KREMMLING      CLEAR     48  39  71 CALM      30.53R
LEADVILLE      CLEAR     44  38  79 CALM      30.70S
MONARCH PASS   CLEAR     50  37  62 SW17      30.97S
SALIDA         CLEAR    N/A N/A N/A NW7       30.62S
SUNLIGHT       CLEAR     59  34  38 CALM      30.77R
WILKERSON PASS CLEAR     52  36  54 S8        30.85R
$$

COZ069>075-231300-
...SAN LUIS VALLEY/SANGRE DE CRISTO MOUNTAINS...

CITY           SKY/WX    TMP DP  RH WIND       PRES   REMARKS
ALAMOSA        PTCLDY    52  46  80 NW3       30.53R
LA VETA PASS   CLEAR     59  45  58 N3        30.73S
SAGUACHE       MOCLDY    57  43  58 NW8       30.57R
$$

COZ035-036-038>040-231300-
...NORTHERN COLORADO FRONT RANGE...

CITY           SKY/WX    TMP DP  RH WIND       PRES   REMARKS
DENVER INTL AP PTCLDY    66  58  75 W7        30.34R
DMNS CITY PARK   N/A     64  56  73 NW2       30.34S
AURORA         PTCLDY    65  45  49 SW3       30.37R
FRONT RANGE AP NOT AVBL
ERIE MUNI ARPT CLEAR     62  59  91 CALM      30.34R
BOULDER MUN AP CLEAR     64  54  68 CALM      30.35R
CENTENNIAL     PTCLDY    65  43  44 E3        30.38R
BROOMFIELD     CLEAR     64  61  88 N7        30.38R
FORT COLLINS   CLEAR     64  61  88 NE6       30.34R
LONGMONT       CLEAR     65  60  83 CALM      30.35R
$$

COZ041-046-047-076>085-087-088-231300-
...PIKES PEAK/PALMER DIVIDE AND SOUTHERN FOOTHILLS...

CITY           SKY/WX    TMP DP  RH WIND       PRES   REMARKS
COLO. SPRINGS  PTCLDY    60  51  72 NE9       30.41R
A. F. ACADEMY  CLEAR     56  45  65 N6        30.43R
ELLICOTT       CLEAR     67  55  65 E12       30.39R
FALCON         CLEAR     61  48  62 CALM      30.47R
FORT CARSON    CLEAR     65  47  51 NW8       30.37R
LIMON          CLEAR     55  53  93 CALM      30.35S
MONUMENT HILL  CLEAR     61  41  48 SW8       30.46R
TRINIDAD       CLEAR     66  52  60 W12       30.38R
$$

COZ042>045-048>051-090-091-231300-
...NORTHEAST COLORADO...

CITY           SKY/WX    TMP DP  RH WIND       PRES   REMARKS
GREELEY ARPT   CLEAR     63  55  77 NE5       30.31R
AKRON          CLOUDY    66  64  93 SE15      30.33R FOG
BURLINGTON     CLOUDY    67  66  97 E14       30.32R FOG
WRAY             N/A     70  68  95 SE13G22   30.28F
STERLING       MOCLDY    70  68  94 SE10G16   30.28S
HOLYOKE        CLOUDY    70  64  83 SE16G22   30.28F
FORT MORGAN    CLOUDY    66  63  90 E10       30.32R
$$

COZ086-089-092>099-231300-
...SOUTHEAST COLORADO...

CITY           SKY/WX    TMP DP  RH WIND       PRES   REMARKS
PUEBLO         CLEAR     63  53  70 CALM      30.29R
LA JUNTA       CLEAR     68  60  75 S3        30.26R
LAMAR          CLEAR     65  61  87 CALM      30.23R
SPRINGFIELD      N/A     66  62  87 SW7       30.28S
$$


USA.gov is the U.S. government's official web portal to all federal, state and local government web resources and services.